Overview Statistics Trail Chart Weather Telemetry Raw packets
 

This is the latest recevied weather packets stored in our database for station/object YO8PIC-13. If no packets are shown the sender has not sent any weather packets the latest 10 day(s).

<< 31 32 33 34 35 36 37 >>
Time Temp. Humidity Pressure Rain* Wind** Luminosity Snow
1788081297 40.56° C 20% 1020.9 hPa - - - -
1788080698 37.78° C 24% 1021 hPa - - - -
1788080098 36.11° C 26% 1021.1 hPa - - - -
1788079498 37.78° C 25% 1021.3 hPa - - - -
1788078898 27.78° C 47% 1021.4 hPa - - - -
1788078297 26.67° C 50% 1021.5 hPa - - - -
1788077697 26.11° C 49% 1021.7 hPa - - - -
1788077097 25.56° C 51% 1021.6 hPa - - - -
1788076497 26.11° C 52% 1021.6 hPa - - - -
1788075897 25° C 55% 1021.7 hPa - - - -
1787987534 22.22° C 53% 1024 hPa - - - -
1787986935 21.67° C 53% 1023.9 hPa - - - -
1787986334 21.11° C 57% 1024 hPa - - - -
1787985734 20.56° C 58% 1024.1 hPa - - - -
1787985134 20° C 62% 1024 hPa - - - -
1787984536 19.44° C 63% 1024 hPa - - - -
1787983934 19.44° C 65% 1024 hPa - - - -
1787983334 18.89° C 68% 1024.3 hPa - - - -
1787982740 17.78° C 70% 1024.2 hPa - - - -
1787982134 17.22° C 73% 1024.3 hPa - - - -
1787981536 16.67° C 75% 1024.5 hPa - - - -
1787980935 16.67° C 74% 1024.4 hPa - - - -
1787980335 16.11° C 77% 1024.5 hPa - - - -
1787979734 16.11° C 78% 1024.4 hPa - - - -
1787979135 15.56° C 80% 1024.5 hPa - - - -

* Rain since midnight (hover to see other rain measurements)
** Current wind speed in m/s (hover to see current wind gust speed)